| time (UTC) | temp F | wind direction | speed knots | gust knots | rain 1hr in | rain 24hr in | rain mn in | humidity % | barometer mb |
| 20260505075839 | 68 | 105 | 2.6 | 2.6 | 0.00 | 0.00 | 0.00 | 83 | 1008.7 |
| 20260505075336 | 68 | 144 | 5.2 | 5.2 | 0.00 | 0.00 | 0.00 | 83 | 1008.8 |
| 20260505074833 | 68 | 294 | 0.9 | 7.0 | 0.00 | 0.00 | 0.00 | 83 | 1008.8 |
| 20260505074331 | 68 | 163 | 3.5 | 4.3 | 0.00 | 0.00 | 0.00 | 83 | 1008.8 |
| 20260505073828 | 68 | 69 | 1.7 | 2.6 | 0.00 | 0.00 | 0.00 | 83 | 1008.6 |
| 20260505073326 | 68 | 107 | 1.7 | 4.3 | 0.00 | 0.00 | 0.00 | 83 | 1009.0 |
| 20260505072822 | 68 | 121 | 1.7 | 2.6 | 0.00 | 0.00 | 0.00 | 83 | 1009.0 |
| 20260505072319 | 68 | 233 | 0.0 | 6.1 | 0.00 | 0.00 | 0.00 | 82 | 1009.1 |
| 20260505071815 | 68 | 25 | 0.0 | 5.2 | 0.00 | 0.00 | 0.00 | 82 | 1009.2 |
| 20260505071311 | 68 | 107 | 1.7 | 2.6 | 0.00 | 0.00 | 0.00 | 82 | 1009.1 |
| 20260505070810 | 68 | 132 | 2.6 | 2.6 | 0.00 | 0.00 | 0.00 | 82 | 1009.1 |
| 20260505070306 | 68 | 89 | 0.0 | 1.7 | 0.00 | 0.00 | 0.00 | 82 | 1009.2 |
| 20260505065801 | 68 | 135 | 0.0 | 1.7 | 0.00 | 0.00 | 0.00 | 81 | 1009.4 |
| 20260505065258 | 68 | 278 | 1.7 | 3.5 | 0.00 | 0.00 | 0.00 | 81 | 1009.4 |
| 20260505064755 | 68 | 41 | 0.0 | 2.6 | 0.00 | 0.00 | 0.00 | 81 | 1009.4 |
| 20260505064252 | 68 | 124 | 2.6 | 3.5 | 0.00 | 0.00 | 0.00 | 80 | 1009.6 |
| 20260505063750 | 68 | 3 | 1.7 | 4.3 | 0.00 | 0.00 | 0.00 | 80 | 1009.5 |
| 20260505063246 | 68 | 142 | 0.0 | 3.5 | 0.00 | 0.00 | 0.00 | 80 | 1009.6 |
| 20260505062742 | 68 | 151 | 0.9 | 7.0 | 0.00 | 0.00 | 0.00 | 79 | 1009.5 |
| 20260505062240 | 68 | 116 | 0.0 | 3.5 | 0.00 | 0.00 | 0.00 | 79 | 1009.4 |
| 20260505061737 | 68 | 147 | 0.9 | 4.3 | 0.00 | 0.00 | 0.00 | 79 | 1009.6 |
| 20260505061235 | 68 | 78 | 1.7 | 3.5 | 0.00 | 0.00 | 0.00 | 79 | 1009.6 |
| 20260505060732 | 69 | 68 | 1.7 | 1.7 | 0.00 | 0.00 | 0.00 | 79 | 1009.6 |
| 20260505060229 | 69 | 131 | 2.6 | 3.5 | 0.00 | 0.00 | 0.00 | 78 | 1009.9 |
| 20260505055724 | 69 | 114 | 6.1 | 7.0 | 0.00 | 0.00 | 0.00 | 78 | 1009.9 |
| 20260505055221 | 69 | 101 | 2.6 | 2.6 | 0.00 | 0.00 | 0.00 | 78 | 1010.0 |
| 20260505054718 | 69 | 25 | 0.0 | 3.5 | 0.00 | 0.00 | 0.00 | 78 | 1009.9 |
| 20260505054216 | 69 | 104 | 0.0 | 3.5 | 0.00 | 0.00 | 0.00 | 78 | 1009.8 |
| 20260505053714 | 69 | 100 | 0.0 | 4.3 | 0.00 | 0.00 | 0.00 | 77 | 1009.9 |
| 20260505053210 | 69 | 176 | 1.7 | 5.2 | 0.00 | 0.00 | 0.00 | 77 | 1010.0 |
| 20260505052707 | 69 | 115 | 0.9 | 6.1 | 0.00 | 0.00 | 0.00 | 77 | 1009.8 |
| 20260505052204 | 69 | 120 | 2.6 | 3.5 | 0.00 | 0.00 | 0.00 | 77 | 1009.8 |
| 20260505051701 | 69 | 109 | 1.7 | 4.3 | 0.00 | 0.00 | 0.00 | 77 | 1009.7 |
| 20260505051159 | 69 | 145 | 1.7 | 1.7 | 0.00 | 0.00 | 0.00 | 76 | 1009.7 |
| 20260505050657 | 69 | 121 | 3.5 | 4.3 | 0.00 | 0.00 | 0.00 | 76 | 1009.6 |
| 20260505050155 | 69 | 132 | 1.7 | 2.6 | 0.00 | 0.00 | 0.00 | 76 | 1009.6 |
| 20260505041625 | 70 | 63 | 0.0 | 4.3 | 0.00 | 0.00 | 0.00 | 73 | 1010.1 |
| 20260505041122 | 70 | 111 | 0.0 | 5.2 | 0.00 | 0.00 | 0.00 | 74 | 1010.0 |
| 20260505040619 | 70 | 200 | 1.7 | 3.5 | 0.00 | 0.00 | 0.00 | 73 | 1009.9 |
| 20260505040116 | 70 | 130 | 0.0 | 6.1 | 0.00 | 0.00 | 0.00 | 73 | 1009.9 |
| 20260505035612 | 70 | 12 | 0.9 | 2.6 | 0.00 | 0.00 | 0.00 | 72 | 1009.9 |
| 20260505035109 | 70 | 123 | 1.7 | 4.3 | 0.00 | 0.00 | 0.00 | 72 | 1009.9 |
| 20260505034606 | 70 | 137 | 0.0 | 3.5 | 0.00 | 0.00 | 0.00 | 72 | 1009.9 |
| 20260505034102 | 70 | 113 | 1.7 | 3.5 | 0.00 | 0.00 | 0.00 | 72 | 1010.1 |
| 20260505033559 | 70 | 143 | 2.6 | 2.6 | 0.00 | 0.00 | 0.00 | 71 | 1009.9 |
| 20260505033058 | 70 | 149 | 0.0 | 1.7 | 0.00 | 0.00 | 0.00 | 71 | 1010.1 |
| 20260505032555 | 70 | 188 | 1.7 | 2.6 | 0.00 | 0.00 | 0.00 | 71 | 1010.2 |
| 20260505032051 | 70 | 168 | 0.0 | 3.5 | 0.00 | 0.00 | 0.00 | 70 | 1010.1 |
| 20260505031549 | 70 | 173 | 0.9 | 2.6 | 0.00 | 0.00 | 0.00 | 70 | 1010.2 |
| 20260505031045 | 70 | 228 | 0.0 | 1.7 | 0.00 | 0.00 | 0.00 | 70 | 1010.0 |
| 20260505030542 | 70 | 156 | 1.7 | 1.7 | 0.00 | 0.00 | 0.00 | 70 | 1010.0 |
| 20260505030038 | 70 | 83 | 2.6 | 3.5 | 0.00 | 0.00 | 0.00 | 70 | 1009.9 |
| 20260505025534 | 71 | 89 | 0.0 | 1.7 | 0.00 | 0.00 | 0.00 | 69 | 1010.0 |
| 20260505025033 | 71 | 191 | 0.0 | 2.6 | 0.00 | 0.00 | 0.00 | 69 | 1010.1 |
| 20260505024530 | 71 | 130 | 1.7 | 2.6 | 0.00 | 0.00 | 0.00 | 68 | 1009.9 |
| 20260505024027 | 71 | 110 | 1.7 | 2.6 | 0.00 | 0.00 | 0.00 | 68 | 1010.0 |
| 20260505023524 | 71 | 73 | 0.9 | 2.6 | 0.00 | 0.00 | 0.00 | 68 | 1009.9 |
| 20260505023021 | 71 | 120 | 0.0 | 2.6 | 0.00 | 0.00 | 0.00 | 68 | 1009.8 |
| 20260505022519 | 71 | 82 | 0.0 | 1.7 | 0.00 | 0.00 | 0.00 | 67 | 1010.0 |
| 20260505022016 | 71 | 119 | 0.9 | 2.6 | 0.00 | 0.00 | 0.00 | 67 | 1009.8 |
| 20260505021512 | 71 | 205 | 0.0 | 4.3 | 0.00 | 0.00 | 0.00 | 67 | 1009.7 |
| 20260505021008 | 71 | 171 | 0.0 | 2.6 | 0.00 | 0.00 | 0.00 | 66 | 1009.5 |
| 20260505020503 | 71 | 75 | 1.7 | 2.6 | 0.00 | 0.00 | 0.00 | 66 | 1009.5 |
| 20260505020000 | 72 | 134 | 0.9 | 2.6 | 0.00 | 0.00 | 0.00 | 65 | 1009.6 |
| 20260505015458 | 71 | 122 | 1.7 | 2.6 | 0.00 | 0.00 | 0.00 | 65 | 1009.4 |
| 20260505014954 | 72 | 9 | 0.9 | 2.6 | 0.00 | 0.00 | 0.00 | 65 | 1009.5 |
| 20260505014451 | 72 | 38 | 0.0 | 2.6 | 0.00 | 0.00 | 0.00 | 64 | 1009.4 |
| 20260505013949 | 72 | 86 | 0.0 | 1.7 | 0.00 | 0.00 | 0.00 | 64 | 1009.5 |
| 20260505013446 | 72 | 134 | 2.6 | 2.6 | 0.00 | 0.00 | 0.00 | 64 | 1009.5 |
| 20260505012943 | 72 | 96 | 1.7 | 1.7 | 0.00 | 0.00 | 0.00 | 63 | 1009.2 |
| 20260505012441 | 72 | 101 | 0.0 | 2.6 | 0.00 | 0.00 | 0.00 | 62 | 1009.3 |
| 20260505011937 | 72 | 110 | 0.9 | 2.6 | 0.00 | 0.00 | 0.00 | 62 | 1009.3 |
| 20260505011433 | 72 | 55 | 0.0 | 2.6 | 0.00 | 0.00 | 0.00 | 62 | 1009.5 |
| 20260505010930 | 73 | 91 | 0.9 | 1.7 | 0.00 | 0.00 | 0.00 | 61 | 1009.3 |
| 20260505010426 | 73 | 40 | 0.0 | 0.9 | 0.00 | 0.00 | 0.00 | 60 | 1009.1 |
| 20260505005922 | 73 | 209 | 0.0 | 1.7 | 0.00 | 0.00 | 0.00 | 60 | 1009.1 |
| 20260505005419 | 74 | 25 | 0.0 | 1.7 | 0.00 | 0.00 | 0.00 | 59 | 1009.1 |
| 20260505004917 | 74 | 149 | 1.7 | 1.7 | 0.00 | 0.00 | 0.00 | 57 | 1009.0 |
| 20260505004413 | 75 | 131 | 0.0 | 2.6 | 0.00 | 0.00 | 0.00 | 56 | 1009.4 |
| 20260505003910 | 75 | 142 | 0.0 | 0.9 | 0.00 | 0.00 | 0.00 | 56 | 1009.2 |
| 20260505003407 | 75 | 149 | 0.0 | 2.6 | 0.00 | 0.00 | 0.00 | 55 | 1009.4 |
| 20260505002903 | 76 | 95 | 0.9 | 2.6 | 0.00 | 0.00 | 0.00 | 53 | 1009.2 |
| 20260505002400 | 76 | 152 | 0.9 | 1.7 | 0.00 | 0.00 | 0.00 | 53 | 1009.5 |
| 20260505001858 | 76 | 32 | 1.7 | 3.5 | 0.00 | 0.00 | 0.00 | 51 | 1009.5 |
| 20260505001355 | 77 | 220 | 0.0 | 1.7 | 0.00 | 0.00 | 0.00 | 50 | 1009.9 |
| 20260505000853 | 77 | 228 | 0.0 | 1.7 | 0.00 | 0.00 | 0.00 | 50 | 1009.7 |
| 20260505000351 | 77 | 151 | 1.7 | 2.6 | 0.00 | 0.00 | 0.00 | 49 | 1009.7 |
| 20260504235847 | 78 | 116 | 2.6 | 4.3 | 0.00 | 0.00 | 0.00 | 46 | 1009.8 |
| 20260504235344 | 80 | 210 | 1.7 | 3.5 | 0.00 | 0.00 | 0.00 | 45 | 1010.0 |
| 20260504234840 | 80 | 174 | 0.9 | 2.6 | 0.00 | 0.00 | 0.00 | 45 | 1010.0 |
| 20260504234338 | 80 | 154 | 2.6 | 4.3 | 0.00 | 0.00 | 0.00 | 44 | 1010.0 |
| 20260504233834 | 79 | 234 | 0.0 | 4.3 | 0.00 | 0.00 | 0.00 | 45 | 1010.0 |
| 20260504233330 | 80 | 156 | 0.0 | 5.2 | 0.00 | 0.00 | 0.00 | 45 | 1010.0 |
| 20260504232827 | 80 | 186 | 0.9 | 3.5 | 0.00 | 0.00 | 0.00 | 45 | 1010.0 |
| 20260504232324 | 80 | 108 | 1.7 | 6.1 | 0.00 | 0.00 | 0.00 | 43 | 1010.3 |
| 20260504231821 | 81 | 277 | 0.0 | 4.3 | 0.00 | 0.00 | 0.00 | 43 | 1010.4 |
| 20260504231317 | 81 | 128 | 0.0 | 4.3 | 0.00 | 0.00 | 0.00 | 43 | 1010.6 |
| 20260504230813 | 81 | 257 | 0.9 | 4.3 | 0.00 | 0.00 | 0.00 | 43 | 1010.5 |
| 20260504230312 | 80 | 158 | 0.9 | 4.3 | 0.00 | 0.00 | 0.00 | 43 | 1010.5 |
| 20260504225810 | 80 | 278 | 1.7 | 7.8 | 0.00 | 0.00 | 0.00 | 43 | 1010.6 |
| 20260504225306 | 81 | 121 | 2.6 | 5.2 | 0.00 | 0.00 | 0.00 | 42 | 1010.5 |
| 20260504224803 | 81 | 165 | 1.7 | 7.0 | 0.00 | 0.00 | 0.00 | 42 | 1010.6 |
| 20260504224300 | 81 | 152 | 3.5 | 7.0 | 0.00 | 0.00 | 0.00 | 43 | 1010.8 |
| 20260504223757 | 81 | 206 | 1.7 | 5.2 | 0.00 | 0.00 | 0.00 | 44 | 1010.9 |
| 20260504223252 | 81 | 134 | 5.2 | 8.7 | 0.00 | 0.00 | 0.00 | 43 | 1010.8 |
| 20260504222749 | 80 | 174 | 0.0 | 11.3 | 0.00 | 0.00 | 0.00 | 44 | 1010.6 |
| 20260504222246 | 81 | 96 | 1.7 | 7.0 | 0.00 | 0.00 | 0.00 | 43 | 1010.8 |
| 20260504221744 | 81 | 112 | 0.9 | 2.6 | 0.00 | 0.00 | 0.00 | 44 | 1010.8 |
| 20260504221241 | 82 | 180 | 0.9 | 5.2 | 0.00 | 0.00 | 0.00 | 43 | 1011.0 |
| 20260504220738 | 82 | 218 | 1.7 | 3.5 | 0.00 | 0.00 | 0.00 | 44 | 1011.2 |
| 20260504220235 | 81 | 179 | 1.7 | 4.3 | 0.00 | 0.00 | 0.00 | 45 | 1011.1 |
| 20260504215732 | 81 | 289 | 0.9 | 5.2 | 0.00 | 0.00 | 0.00 | 45 | 1011.0 |
| 20260504215228 | 82 | 265 | 2.6 | 4.3 | 0.00 | 0.00 | 0.00 | 45 | 1011.1 |
| 20260504214725 | 81 | 273 | 1.7 | 2.6 | 0.00 | 0.00 | 0.00 | 46 | 1011.2 |
| 20260504214221 | 81 | 161 | 2.6 | 5.2 | 0.00 | 0.00 | 0.00 | 43 | 1011.2 |
| 20260504213718 | 81 | 334 | 1.7 | 5.2 | 0.00 | 0.00 | 0.00 | 45 | 1011.5 |
| 20260504213214 | 81 | 155 | 1.7 | 2.6 | 0.00 | 0.00 | 0.00 | 48 | 1011.4 |
| 20260504212711 | 81 | 88 | 0.9 | 4.3 | 0.00 | 0.00 | 0.00 | 45 | 1011.7 |
| 20260504212208 | 81 | 153 | 2.6 | 5.2 | 0.00 | 0.00 | 0.00 | 46 | 1011.4 |
| 20260504211705 | 81 | 249 | 1.7 | 7.8 | 0.00 | 0.00 | 0.00 | 47 | 1011.8 |
| 20260504211201 | 80 | 336 | 0.0 | 4.3 | 0.00 | 0.00 | 0.00 | 47 | 1011.8 |
| 20260504210659 | 81 | 156 | 2.6 | 7.0 | 0.00 | 0.00 | 0.00 | 45 | 1011.9 |
| 20260504210156 | 80 | 72 | 4.3 | 5.2 | 0.00 | 0.00 | 0.00 | 46 | 1012.2 |
| 20260504205653 | 81 | 123 | 0.9 | 5.2 | 0.00 | 0.00 | 0.00 | 44 | 1012.3 |
| 20260504205150 | 81 | 91 | 3.5 | 6.1 | 0.00 | 0.00 | 0.00 | 45 | 1012.3 |
| 20260504204649 | 81 | 269 | 0.0 | 4.3 | 0.00 | 0.00 | 0.00 | 48 | 1012.3 |
| 20260504204147 | 80 | 237 | 1.7 | 8.7 | 0.00 | 0.00 | 0.00 | 50 | 1012.5 |
| 20260504203646 | 80 | 130 | 6.1 | 6.1 | 0.00 | 0.00 | 0.00 | 45 | 1012.8 |
| 20260504203143 | 80 | 264 | 0.0 | 2.6 | 0.00 | 0.00 | 0.00 | 46 | 1012.8 |
| 20260504202643 | 80 | 129 | 1.7 | 6.1 | 0.00 | 0.00 | 0.00 | 48 | 1012.8 |
| 20260504202140 | 81 | 111 | 7.0 | 11.3 | 0.00 | 0.00 | 0.00 | 45 | 1012.8 |
| 20260504201637 | 80 | 259 | 1.7 | 5.2 | 0.00 | 0.00 | 0.00 | 47 | 1013.0 |
| 20260504201135 | 80 | 155 | 3.5 | 7.8 | 0.00 | 0.00 | 0.00 | 46 | 1013.1 |
| 20260504200632 | 80 | 112 | 1.7 | 4.3 | 0.00 | 0.00 | 0.00 | 46 | 1013.3 |
| 20260504200128 | 80 | 151 | 0.9 | 8.7 | 0.00 | 0.00 | 0.00 | 44 | 1013.2 |
| 20260504195624 | 80 | 100 | 2.6 | 7.0 | 0.00 | 0.00 | 0.00 | 46 | 1013.3 |
| 20260504195121 | 80 | 165 | 2.6 | 7.8 | 0.00 | 0.00 | 0.00 | 45 | 1013.5 |
| 20260504194617 | 80 | 248 | 0.9 | 3.5 | 0.00 | 0.00 | 0.00 | 46 | 1013.6 |
| 20260504194113 | 80 | 260 | 3.5 | 5.2 | 0.00 | 0.00 | 0.00 | 43 | 1013.6 |
| 20260504193610 | 80 | 254 | 5.2 | 10.4 | 0.00 | 0.00 | 0.00 | 45 | 1013.6 |
| 20260504193108 | 80 | 265 | 0.9 | 5.2 | 0.00 | 0.00 | 0.00 | 45 | 1013.9 |
| 20260504192606 | 80 | 272 | 5.2 | 5.2 | 0.00 | 0.00 | 0.00 | 43 | 1014.0 |
| 20260504192104 | 80 | 263 | 0.9 | 6.1 | 0.00 | 0.00 | 0.00 | 45 | 1014.0 |
| 20260504191602 | 80 | 160 | 1.7 | 5.2 | 0.00 | 0.00 | 0.00 | 45 | 1014.1 |
| 20260504191058 | 80 | 154 | 0.0 | 4.3 | 0.00 | 0.00 | 0.00 | 50 | 1013.9 |
| 20260504190554 | 79 | 190 | 1.7 | 2.6 | 0.00 | 0.00 | 0.00 | 47 | 1013.8 |
| 20260504190050 | 79 | 118 | 1.7 | 7.0 | 0.00 | 0.00 | 0.00 | 46 | 1014.3 |
| 20260504185548 | 80 | 168 | 2.6 | 7.0 | 0.00 | 0.00 | 0.00 | 45 | 1014.3 |
| 20260504185044 | 80 | 76 | 6.1 | 6.1 | 0.00 | 0.00 | 0.00 | 45 | 1014.1 |
| 20260504184539 | 80 | 184 | 2.6 | 2.6 | 0.00 | 0.00 | 0.00 | 46 | 1014.3 |
| 20260504184035 | 79 | 191 | 3.5 | 3.5 | 0.00 | 0.00 | 0.00 | 47 | 1014.4 |
| 20260504183532 | 79 | 349 | 1.7 | 5.2 | 0.00 | 0.00 | 0.00 | 47 | 1014.7 |
| 20260504183030 | 79 | 135 | 1.7 | 7.0 | 0.00 | 0.00 | 0.00 | 48 | 1014.6 |
| 20260504182527 | 78 | 298 | 1.7 | 3.5 | 0.00 | 0.00 | 0.00 | 47 | 1014.8 |
| 20260504182024 | 78 | 244 | 3.5 | 4.3 | 0.00 | 0.00 | 0.00 | 48 | 1014.7 |
| 20260504181521 | 78 | 303 | 1.7 | 3.5 | 0.00 | 0.00 | 0.00 | 46 | 1014.8 |
| 20260504181020 | 79 | 194 | 2.6 | 3.5 | 0.00 | 0.00 | 0.00 | 48 | 1015.0 |
| 20260504180518 | 78 | 254 | 2.6 | 4.3 | 0.00 | 0.00 | 0.00 | 50 | 1015.0 |
| 20260504180017 | 77 | 93 | 1.7 | 5.2 | 0.00 | 0.00 | 0.00 | 47 | 1015.1 |
| 20260504175513 | 77 | 318 | 0.0 | 7.8 | 0.00 | 0.00 | 0.00 | 49 | 1015.4 |
| 20260504175010 | 77 | 275 | 2.6 | 8.7 | 0.00 | 0.00 | 0.00 | 51 | 1015.3 |
| 20260504174508 | 77 | 116 | 1.7 | 5.2 | 0.00 | 0.00 | 0.00 | 51 | 1015.4 |
| 20260504174005 | 77 | 291 | 1.7 | 5.2 | 0.00 | 0.00 | 0.00 | 46 | 1015.4 |
| 20260504173501 | 77 | 265 | 4.3 | 4.3 | 0.00 | 0.00 | 0.00 | 47 | 1015.8 |
| 20260504172959 | 77 | 274 | 1.7 | 5.2 | 0.00 | 0.00 | 0.00 | 48 | 1015.6 |
| 20260504172455 | 78 | 208 | 4.3 | 6.1 | 0.00 | 0.00 | 0.00 | 46 | 1015.6 |
| 20260504171951 | 78 | 165 | 1.7 | 3.5 | 0.00 | 0.00 | 0.00 | 48 | 1015.4 |
| 20260504171449 | 77 | 36 | 0.9 | 8.7 | 0.00 | 0.00 | 0.00 | 49 | 1015.7 |
| 20260504170945 | 77 | 286 | 2.6 | 8.7 | 0.00 | 0.00 | 0.00 | 48 | 1015.6 |
| 20260504170441 | 77 | 242 | 0.0 | 5.2 | 0.00 | 0.00 | 0.00 | 50 | 1015.9 |
| 20260504160401 | 74 | 133 | 0.0 | 4.3 | 0.00 | 0.00 | 0.00 | 55 | 1016.3 |
| 20260504150826 | 73 | 63 | 0.9 | 5.2 | 0.00 | 0.00 | 0.00 | 59 | 1016.4 |
| 20260504150322 | 72 | 167 | 1.7 | 7.0 | 0.00 | 0.00 | 0.00 | 58 | 1016.5 |
| 20260504141252 | 68 | 83 | 0.0 | 4.3 | 0.00 | 0.00 | 0.00 | 69 | 1016.9 |
| 20260504140749 | 66 | 159 | 0.0 | 1.7 | 0.00 | 0.00 | 0.00 | 69 | 1016.7 |
| 20260504140244 | 66 | 269 | 1.7 | 3.5 | 0.00 | 0.00 | 0.00 | 69 | 1016.6 |
| 20260504130713 | 59 | 142 | 0.0 | 3.5 | 0.00 | 0.00 | 0.00 | 85 | 1016.8 |
| 20260504130209 | 58 | 119 | 1.7 | 3.5 | 0.00 | 0.00 | 0.00 | 88 | 1016.7 |
| 20260504120133 | 51 | 80 | 1.7 | 1.7 | 0.00 | 0.00 | 0.00 | 96 | 1016.4 |
| 20260504110600 | 51 | 101 | 1.7 | 1.7 | 0.00 | 0.00 | 0.00 | 95 | 1015.9 |
| 20260504100522 | 53 | 89 | 0.0 | 0.9 | 0.00 | 0.00 | 0.00 | 93 | 1016.7 |
| 20260504081915 | 56 | 74 | 0.9 | 1.7 | 0.00 | 0.00 | 0.00 | 87 | 1016.4 |
| 20260504081412 | 56 | 93 | 0.0 | 1.7 | 0.00 | 0.00 | 0.00 | 87 | 1016.5 |
| 20260504080908 | 56 | 89 | 0.0 | 1.7 | 0.00 | 0.00 | 0.00 | 86 | 1016.5 |
| 20260504080405 | 57 | 85 | 0.0 | 1.7 | 0.00 | 0.00 | 0.00 | 85 | 1016.3 |